STARLINK-36209

Last updated on Fri Dec 19 2025 00:02:09 GMT+0000 (Coordinated Universal Time)

1 67022U 25293V 25351.83335648 -.01132680 40740-3 -23994-2 0 9994 2 67022 69.9928 308.9956 0004080 265.6687 146.7897 15.98583507 2380
UTC large
Height (km)
Speed (km/s)
/
Latitude / Longitude
Inclination (degrees)
Orbital Period (minutes)
Azimuth
Elevation
Range (km)
Doppler Factor

Next 0 passes for location: London (51.5072 / 0.1276)

Sorry there are no passes over London.